7 * 24
多渠道服务支持
ORBCOMM FM37 是一颗由 ORBCOMM 公司运营的低轨(LEO)物联网卫星,属于其第二代卫星星座(OG2)的一部分。该卫星运行在约 560 公里的近地轨道,主要用于提供全球范围内的机器对机器(M2M)通信服务,适用于物流、运输、资产跟踪和远程监控等领域。FM37 采用先进通信技术,具备高可靠性与低功耗特性,支持全球实时数据传输,增强了 ORBCOMM 在物联网通信市场的竞争力。
| 数据来源 | 国际轨道数据 |
| 星历时间: | 2025-10-25T18:35:05+0800 11小时前 查看轨道信息 |
| 半长轴: | 7006.491km |
| 偏心率: | 0.0005739 |
| 轨道倾角: | 48.438° |
| 近地点辐角 | 219.425° |
| 升交点赤经 | 84.187° |
| 平近点角 | 174.953° |
| 近地点: | 624.334km |
| 远地点: | 632.378km |
| 周期: | 97.277分钟 |
| 每日圈数: | 14.803077 |